Flag for United Arab Emirates

Past Weather in Al Ain, Abu Dhabi, United Arab Emirates — Yesterday and Last 2 Weeks

Now
68 °F

Fog.


Feels Like: 68 °F
Forecast: 92 / 73 °F
Wind: 8 mph from Northeast

Location: Al Ain International Airport
Current Time: Oct 23, 2020 at 6:31:59 am
Latest Report: Oct 23, 2020 at 6:05 am
Visibility: 1 mi
Pressure29.89 "Hg
Humidity: 94%
Dew Point: 66 °F
Location of Al AinLocation

Past Weather in Al Ain — Graph

°F

Al Ain Temperature Yesterday

Maximum temperature yesterday: 97 °F (at 1:00 pm)
Minimum temperature yesterday: 72 °F (at 1:00 am)
Average temperature yesterday: 83 °F

High & Low Weather Summary for the Past Weeks

 TemperatureHumidityPressure
High102 °F (Oct 8, 2:00 pm)94% (Oct 23, 5:34 am)29.98 "Hg (Oct 23, 5:34 am)
Low66 °F (Oct 20, 6:00 am)3% (Oct 19, 3:00 pm)29.77 "Hg (Oct 12, 3:00 pm)
Average86 °F27%29.86 "Hg
* Reported Oct 8 5:00 am — Oct 23 5:34 am, Al Ain. Weather by CustomWeather, © 2020

Note: Actual official high and low records may vary slightly from our data, if they occured in-between our weather recording intervals... More about our weather records

Al Ain Weather History for the Previous 24 Hours

Scroll right to see more
 ConditionsComfort  
Time TempWeatherWind HumidityBarometerVisibility
5:34 am
Fri, Oct 23
68 °FFog.9 mph94%29.86 "Hg1 mi
5:00 am68 °FHaze.8 mph88%29.86 "Hg2 mi
4:00 am68 °FHaze.7 mph83%29.86 "Hg2 mi
3:00 am70 °FHaze.8 mph83%29.86 "Hg2 mi
2:40 am72 °FHaze.7 mph78%29.86 "Hg2 mi
2:00 am73 °FClear.9 mph74%29.86 "Hg4 mi
1:00 am73 °FClear.8 mph74%29.86 "Hg4 mi
12:00 am75 °FClear.8 mph65%29.89 "Hg10 mi
11:00 pm
Thu, Oct 22
75 °FClear.9 mph61%29.89 "Hg10 mi
10:00 pm79 °FClear.8 mph58%29.89 "Hg10 mi
9:00 pm81 °FClear.9 mph54%29.89 "Hg10 mi
8:00 pm82 °FClear.13 mph42%29.86 "Hg10 mi
7:00 pm86 °FClear.14 mph27%29.86 "Hg10 mi
6:00 pm91 °FClear.14 mph18%29.83 "Hg10 mi
5:00 pm95 °FSunny.14 mph5%29.83 "Hg10 mi
4:00 pm97 °FPassing clouds.13 mph4%29.83 "HgN/A
3:00 pm97 °FPassing clouds.10 mph4%29.83 "HgN/A
2:00 pm97 °FSunny.5 mph4%29.83 "Hg10 mi
1:00 pm97 °FPassing clouds.5 mph4%29.86 "HgN/A
12:00 pm95 °FPassing clouds.7 mph4%29.92 "HgN/A
11:00 am93 °FPassing clouds.7 mph5%29.95 "HgN/A
10:00 am90 °FSunny.7 mph7%29.95 "Hg10 mi
9:00 am82 °FSunny.8 mph8%29.95 "Hg10 mi
8:00 am77 °FSunny.8 mph8%29.95 "Hg10 mi
7:00 am73 °FSunny.9 mph8%29.92 "Hg10 mi
6:00 am73 °FClear.10 mph8%29.89 "Hg10 mi
Weather by CustomWeather, © 2020

See weather overview